Location: Unspecified
(0.0000°N, 0.0000°E)
Time: 03:17:02
(UTC+02:00)

CZ-4B DEB - Visible Passes

Search period start: 31 July 2014 00:00
Search period end: 10 August 2014 00:00
Orbit: 522 x 540 km, 97.5° (Epoch: 30 July)

Date Brightness Start Highest point End Pass type
(mag) Time Alt. Az. Time Alt. Az. Time Alt. Az.
31 Jul 5.6 21:19:52 10° SSW 21:23:01 24° WSW 21:26:09 10° NW visible
01 Aug 4.9 21:09:24 10° SSW 21:12:56 34° WSW 21:16:25 10° NW visible
02 Aug 4.1 20:59:04 10° S 21:02:49 51° WSW 21:06:32 10° NNW visible
03 Aug 3.4 20:48:51 10° S 20:52:42 77° W 20:56:31 10° NNW visible
04 Aug 3.2 20:38:43 10° SSE 20:42:34 71° E 20:46:21 10° N visible
05 Aug 3.5 20:28:42 10° SSE 20:32:24 47° E 20:36:04 10° N visible
07 Aug 6.5 21:45:17 10° WSW 21:46:06 11° WSW 21:46:54 10° W visible
08 Aug 6.2 21:33:36 10° SW 21:35:54 15° WSW 21:38:10 10° WNW visible
09 Aug 5.7 21:22:42 10° SSW 21:25:41 22° WSW 21:28:38 10° NW visible
